Time,TemperatureF,DewpointF,PressureIn,WindDirection,WindDirectionDegrees,WindSpeedMPH,WindSpeedGustMPH,Humidity,HourlyPrecipIn,Conditions,Clouds,dailyrainin,SoftwareType,DateUTC
2013-01-07 00:01:00,32.1,16.0,30.02,South,171,0.0,0.0,51,0.00,,,0.00,WUHU216DAVISVP2,2013-01-07 07:01:00,
2013-01-07 00:06:00,32.1,15.9,30.02,South,171,0.0,0.0,51,0.00,,,0.00,WUHU216DAVISVP2,2013-01-07 07:06:00,
2013-01-07 00:11:00,32.2,16.0,30.02,South,171,0.0,0.0,51,0.00,,,0.00,WUHU216DAVISVP2,2013-01-07 07:11:00,
2013-01-07 00:16:00,32.2,16.0,30.02,South,171,0.0,2.0,51,0.00,,,0.00,WUHU216DAVISVP2,2013-01-07 07:16:00,
2013-01-07 00:21:00,32.3,15.7,30.02,South,171,0.0,2.0,50,0.00,,,0.00,WUHU216DAVISVP2,2013-01-07 07:21:00,
2013-01-07 00:26:00,32.3,15.7,30.02,South,171,0.0,1.0,50,0.00,,,0.00,WUHU216DAVISVP2,2013-01-07 07:26:00,
2013-01-07 00:31:00,32.3,15.7,30.02,South,171,0.0,1.0,50,0.00,,,0.00,WUHU216DAVISVP2,2013-01-07 07:31:00,
2013-01-07 00:36:00,32.3,15.7,30.01,South,171,0.0,0.0,50,0.00,,,0.00,WUHU216DAVISVP2,2013-01-07 07:36:00,
2013-01-07 00:41:00,32.2,15.6,30.01,South,171,0.0,0.0,50,0.00,,,0.00,WUHU216DAVISVP2,2013-01-07 07:41:00,
2013-01-07 00:46:00,32.1,15.9,30.01,South,171,0.0,0.0,51,0.00,,,0.00,WUHU216DAVISVP2,2013-01-07 07:46:00,
2013-01-07 00:51:00,32.1,15.5,30.01,South,171,0.0,2.0,50,0.00,,,0.00,WUHU216DAVISVP2,2013-01-07 07:51:00,
2013-01-07 00:56:00,32.4,15.8,30.01,South,171,0.0,2.0,50,0.00,,,0.00,WUHU216DAVISVP2,2013-01-07 07:56:00,
2013-01-07 01:01:00,32.4,15.3,30.00,South,170,0.0,1.0,49,0.00,,,0.00,WUHU216DAVISVP2,2013-01-07 08:01:00,
2013-01-07 01:06:00,32.3,15.2,30.00,SSE,157,1.0,2.0,49,0.00,,,0.00,WUHU216DAVISVP2,2013-01-07 08:06:00,
2013-01-07 01:11:00,32.5,15.4,30.00,SSE,157,0.0,2.0,49,0.00,,,0.00,WUHU216DAVISVP2,2013-01-07 08:11:00,
2013-01-07 01:16:00,32.5,15.4,30.00,SSE,157,0.0,1.0,49,0.00,,,0.00,WUHU216DAVISVP2,2013-01-07 08:16:00,
2013-01-07 01:21:00,32.3,15.2,30.01,SSE,157,0.0,0.0,49,0.00,,,0.00,WUHU216DAVISVP2,2013-01-07 08:21:00,
2013-01-07 01:26:00,32.2,15.6,30.01,SSE,157,0.0,0.0,50,0.00,,,0.00,WUHU216DAVISVP2,2013-01-07 08:26:00,
2013-01-07 01:31:00,32.2,15.6,30.00,SSE,157,0.0,0.0,50,0.00,,,0.00,WUHU216DAVISVP2,2013-01-07 08:31:00,
2013-01-07 01:36:00,31.9,15.3,30.00,SSE,157,0.0,0.0,50,0.00,,,0.00,WUHU216DAVISVP2,2013-01-07 08:36:00,
2013-01-07 01:41:00,31.4,15.3,30.00,SSE,157,0.0,0.0,51,0.00,,,0.00,WUHU216DAVISVP2,2013-01-07 08:41:00,
2013-01-07 01:46:00,31.0,15.4,30.00,SSE,157,0.0,0.0,52,0.00,,,0.00,WUHU216DAVISVP2,2013-01-07 08:46:00,
2013-01-07 01:51:00,30.6,15.0,30.00,SSE,157,0.0,0.0,52,0.00,,,0.00,WUHU216DAVISVP2,2013-01-07 08:51:00,
2013-01-07 01:56:00,30.5,14.9,30.01,SSE,157,0.0,0.0,52,0.00,,,0.00,WUHU216DAVISVP2,2013-01-07 08:56:00,
2013-01-07 02:01:00,30.4,15.3,30.01,SSE,157,0.0,0.0,53,0.00,,,0.00,WUHU216DAVISVP2,2013-01-07 09:01:00,
2013-01-07 02:06:00,30.3,15.2,30.01,SSE,157,0.0,0.0,53,0.00,,,0.00,WUHU216DAVISVP2,2013-01-07 09:06:00,
2013-01-07 02:11:00,31.0,15.4,30.01,SSE,157,0.0,0.0,52,0.00,,,0.00,WUHU216DAVISVP2,2013-01-07 09:11:00,
2013-01-07 02:16:00,31.5,15.4,30.01,SSE,157,0.0,0.0,51,0.00,,,0.00,WUHU216DAVISVP2,2013-01-07 09:16:00,
2013-01-07 02:21:00,31.6,15.5,30.01,SSE,157,0.0,0.0,51,0.00,,,0.00,WUHU216DAVISVP2,2013-01-07 09:21:00,
2013-01-07 02:26:00,31.7,15.1,30.00,SSE,157,0.0,0.0,50,0.00,,,0.00,WUHU216DAVISVP2,2013-01-07 09:26:00,
2013-01-07 02:31:00,31.7,15.2,30.00,SSE,157,0.0,0.0,50,0.00,,,0.00,WUHU216DAVISVP2,2013-01-07 09:31:00,
2013-01-07 02:36:00,31.4,15.8,30.00,SSE,157,0.0,0.0,52,0.00,,,0.00,WUHU216DAVISVP2,2013-01-07 09:36:00,
2013-01-07 02:41:00,30.7,16.0,30.00,SSE,157,0.0,1.0,54,0.00,,,0.00,WUHU216DAVISVP2,2013-01-07 09:41:00,
2013-01-07 02:46:00,29.8,16.0,30.00,SSE,168,2.0,2.0,56,0.00,,,0.00,WUHU216DAVISVP2,2013-01-07 09:46:00,
2013-01-07 02:51:00,29.0,16.1,30.01,South,172,0.0,2.0,58,0.00,,,0.00,WUHU216DAVISVP2,2013-01-07 09:51:00,
2013-01-07 02:56:00,28.4,16.3,30.01,South,182,0.0,2.0,60,0.00,,,0.00,WUHU216DAVISVP2,2013-01-07 09:56:00,
2013-01-07 03:01:00,28.1,16.4,30.01,South,182,1.0,2.0,61,0.00,,,0.00,WUHU216DAVISVP2,2013-01-07 10:01:00,
2013-01-07 03:06:00,28.0,16.3,30.01,South,182,0.0,2.0,61,0.00,,,0.00,WUHU216DAVISVP2,2013-01-07 10:06:00,
2013-01-07 03:11:00,27.9,16.2,30.01,South,183,0.0,2.0,61,0.00,,,0.00,WUHU216DAVISVP2,2013-01-07 10:11:00,
2013-01-07 03:16:00,28.1,16.0,30.01,South,183,0.0,2.0,60,0.00,,,0.00,WUHU216DAVISVP2,2013-01-07 10:16:00,
2013-01-07 03:21:00,28.3,15.8,30.01,South,183,0.0,2.0,59,0.00,,,0.00,WUHU216DAVISVP2,2013-01-07 10:21:00,
2013-01-07 03:26:00,28.4,15.9,30.01,South,183,0.0,1.0,59,0.00,,,0.00,WUHU216DAVISVP2,2013-01-07 10:26:00,
2013-01-07 03:31:00,28.5,16.0,30.01,South,182,0.0,2.0,59,0.00,,,0.00,WUHU216DAVISVP2,2013-01-07 10:31:00,
2013-01-07 03:36:00,28.3,15.8,30.01,South,182,1.0,2.0,59,0.00,,,0.00,WUHU216DAVISVP2,2013-01-07 10:36:00,
2013-01-07 03:41:00,28.0,15.9,30.01,South,182,0.0,1.0,60,0.00,,,0.00,WUHU216DAVISVP2,2013-01-07 10:41:00,
2013-01-07 03:46:00,27.7,16.0,30.01,South,182,0.0,1.0,61,0.00,,,0.00,WUHU216DAVISVP2,2013-01-07 10:46:00,
2013-01-07 03:51:00,27.6,15.9,30.01,South,182,0.0,2.0,61,0.00,,,0.00,WUHU216DAVISVP2,2013-01-07 10:51:00,
2013-01-07 03:56:00,27.6,15.5,30.01,South,182,1.0,2.0,60,0.00,,,0.00,WUHU216DAVISVP2,2013-01-07 10:56:00,
2013-01-07 04:01:00,27.6,15.5,30.00,South,182,0.0,1.0,60,0.00,,,0.00,WUHU216DAVISVP2,2013-01-07 11:01:00,
2013-01-07 04:06:00,27.8,15.4,30.01,South,178,1.0,2.0,59,0.00,,,0.00,WUHU216DAVISVP2,2013-01-07 11:06:00,
2013-01-07 04:11:00,27.9,15.5,30.00,South,178,0.0,2.0,59,0.00,,,0.00,WUHU216DAVISVP2,2013-01-07 11:11:00,
2013-01-07 04:16:00,27.8,15.8,30.00,South,178,0.0,2.0,60,0.00,,,0.00,WUHU216DAVISVP2,2013-01-07 11:16:00,
2013-01-07 04:21:00,27.7,15.7,30.00,South,178,0.0,0.0,60,0.00,,,0.00,WUHU216DAVISVP2,2013-01-07 11:21:00,
2013-01-07 04:26:00,27.6,15.6,30.00,South,178,0.0,0.0,60,0.00,,,0.00,WUHU216DAVISVP2,2013-01-07 11:26:00,
2013-01-07 04:31:00,27.5,15.4,30.00,South,178,0.0,0.0,60,0.00,,,0.00,WUHU216DAVISVP2,2013-01-07 11:31:00,
2013-01-07 04:36:00,27.5,15.5,30.00,South,178,0.0,0.0,60,0.00,,,0.00,WUHU216DAVISVP2,2013-01-07 11:36:00,
2013-01-07 04:41:00,27.6,15.2,30.00,South,178,0.0,0.0,59,0.00,,,0.00,WUHU216DAVISVP2,2013-01-07 11:41:00,
2013-01-07 04:46:00,28.1,15.6,30.00,SSE,161,0.0,3.0,59,0.00,,,0.00,WUHU216DAVISVP2,2013-01-07 11:46:00,
2013-01-07 04:51:00,28.4,15.5,30.00,SSE,161,0.0,3.0,58,0.00,,,0.00,WUHU216DAVISVP2,2013-01-07 11:51:00,
2013-01-07 04:56:00,28.3,15.4,30.00,SSE,161,0.0,1.0,58,0.00,,,0.00,WUHU216DAVISVP2,2013-01-07 11:56:00,
2013-01-07 05:01:00,28.1,15.6,30.00,SSE,163,0.0,1.0,59,0.00,,,0.00,WUHU216DAVISVP2,2013-01-07 12:01:00,
2013-01-07 05:06:00,27.9,15.5,30.00,SSE,163,0.0,1.0,59,0.00,,,0.00,WUHU216DAVISVP2,2013-01-07 12:06:00,
2013-01-07 05:11:00,27.9,15.1,30.00,SSE,163,0.0,0.0,58,0.00,,,0.00,WUHU216DAVISVP2,2013-01-07 12:11:00,
2013-01-07 05:16:00,28.2,15.3,30.00,SSE,163,0.0,0.0,58,0.00,,,0.00,WUHU216DAVISVP2,2013-01-07 12:16:00,
2013-01-07 05:21:00,28.1,15.6,30.01,SSE,163,0.0,0.0,59,0.00,,,0.00,WUHU216DAVISVP2,2013-01-07 12:21:00,
2013-01-07 05:26:00,27.9,15.8,30.00,SSE,163,0.0,0.0,60,0.00,,,0.00,WUHU216DAVISVP2,2013-01-07 12:26:00,
2013-01-07 05:31:00,27.7,15.3,30.00,SSE,163,0.0,0.0,59,0.00,,,0.00,WUHU216DAVISVP2,2013-01-07 12:31:00,
2013-01-07 05:36:00,27.7,15.3,30.00,SSE,163,0.0,0.0,59,0.00,,,0.00,WUHU216DAVISVP2,2013-01-07 12:36:00,
2013-01-07 05:41:00,28.0,15.5,30.00,SSE,163,0.0,0.0,59,0.00,,,0.00,WUHU216DAVISVP2,2013-01-07 12:41:00,
2013-01-07 05:46:00,28.6,16.1,30.00,SSE,163,0.0,0.0,59,0.00,,,0.00,WUHU216DAVISVP2,2013-01-07 12:46:00,
2013-01-07 05:51:00,28.8,15.9,30.00,SSE,163,0.0,0.0,58,0.00,,,0.00,WUHU216DAVISVP2,2013-01-07 12:51:00,
2013-01-07 05:56:00,28.8,15.5,30.00,SSE,163,0.0,0.0,57,0.00,,,0.00,WUHU216DAVISVP2,2013-01-07 12:56:00,
2013-01-07 06:01:00,28.9,15.6,30.00,SSE,163,0.0,0.0,57,0.00,,,0.00,WUHU216DAVISVP2,2013-01-07 13:01:00,
2013-01-07 06:06:00,28.8,15.9,30.00,SSE,163,0.0,0.0,58,0.00,,,0.00,WUHU216DAVISVP2,2013-01-07 13:06:00,
2013-01-07 06:11:00,28.6,15.7,30.00,SSE,163,0.0,0.0,58,0.00,,,0.00,WUHU216DAVISVP2,2013-01-07 13:11:00,
2013-01-07 06:16:00,28.7,15.8,30.00,SSE,163,0.0,0.0,58,0.00,,,0.00,WUHU216DAVISVP2,2013-01-07 13:16:00,
2013-01-07 06:21:00,28.5,16.0,30.00,SSE,163,0.0,0.0,59,0.00,,,0.00,WUHU216DAVISVP2,2013-01-07 13:21:00,
2013-01-07 06:26:00,28.4,15.5,30.00,WSW,253,0.0,1.0,58,0.00,,,0.00,WUHU216DAVISVP2,2013-01-07 13:26:00,
2013-01-07 06:31:00,28.1,15.6,30.01,WSW,253,0.0,1.0,59,0.00,,,0.00,WUHU216DAVISVP2,2013-01-07 13:31:00,
2013-01-07 06:36:00,27.9,15.5,30.01,WSW,253,0.0,0.0,59,0.00,,,0.00,WUHU216DAVISVP2,2013-01-07 13:36:00,
2013-01-07 06:41:00,27.8,15.8,30.01,WSW,253,0.0,0.0,60,0.00,,,0.00,WUHU216DAVISVP2,2013-01-07 13:41:00,
2013-01-07 06:46:00,27.9,15.8,30.01,WSW,253,0.0,0.0,60,0.00,,,0.00,WUHU216DAVISVP2,2013-01-07 13:46:00,
2013-01-07 06:51:00,28.1,16.0,30.01,WSW,253,0.0,0.0,60,0.00,,,0.00,WUHU216DAVISVP2,2013-01-07 13:51:00,
2013-01-07 06:56:00,27.9,15.8,30.02,WSW,253,0.0,0.0,60,0.00,,,0.00,WUHU216DAVISVP2,2013-01-07 13:56:00,
2013-01-07 07:01:00,27.6,16.3,30.02,SSW,193,0.0,2.0,62,0.00,,,0.00,WUHU216DAVISVP2,2013-01-07 14:01:00,
2013-01-07 07:06:00,26.7,16.2,30.02,SSW,193,0.0,2.0,64,0.00,,,0.00,WUHU216DAVISVP2,2013-01-07 14:06:00,
2013-01-07 07:11:00,26.0,15.9,30.03,SSW,193,0.0,1.0,65,0.00,,,0.00,WUHU216DAVISVP2,2013-01-07 14:11:00,
2013-01-07 07:16:00,25.6,15.9,30.03,SSW,193,0.0,0.0,66,0.00,,,0.00,WUHU216DAVISVP2,2013-01-07 14:16:00,
2013-01-07 07:21:00,25.9,15.7,30.03,SSW,193,0.0,0.0,65,0.00,,,0.00,WUHU216DAVISVP2,2013-01-07 14:21:00,
2013-01-07 07:26:00,26.4,16.3,30.03,SSW,193,0.0,0.0,65,0.00,,,0.00,WUHU216DAVISVP2,2013-01-07 14:26:00,
2013-01-07 07:31:00,26.2,16.1,30.04,SSW,193,0.0,0.0,65,0.00,,,0.00,WUHU216DAVISVP2,2013-01-07 14:31:00,
2013-01-07 07:36:00,25.8,16.1,30.04,SSW,193,0.0,0.0,66,0.00,,,0.00,WUHU216DAVISVP2,2013-01-07 14:36:00,
2013-01-07 07:41:00,25.4,15.7,30.04,SSW,193,0.0,0.0,66,0.00,,,0.00,WUHU216DAVISVP2,2013-01-07 14:41:00,
2013-01-07 07:46:00,25.3,15.9,30.04,SSW,193,0.0,0.0,67,0.00,,,0.00,WUHU216DAVISVP2,2013-01-07 14:46:00,
2013-01-07 07:51:00,25.4,15.7,30.04,SSW,193,0.0,0.0,66,0.00,,,0.00,WUHU216DAVISVP2,2013-01-07 14:51:00,
2013-01-07 07:56:00,25.7,16.0,30.04,SSW,193,0.0,0.0,66,0.00,,,0.00,WUHU216DAVISVP2,2013-01-07 14:56:00,
2013-01-07 08:01:00,25.8,15.6,30.05,SSW,193,0.0,0.0,65,0.00,,,0.00,WUHU216DAVISVP2,2013-01-07 15:01:00,
2013-01-07 08:06:00,25.8,15.6,30.04,SSW,192,0.0,0.0,65,0.00,,,0.00,WUHU216DAVISVP2,2013-01-07 15:06:00,
2013-01-07 08:11:00,26.1,16.0,30.05,SSW,192,0.0,0.0,65,0.00,,,0.00,WUHU216DAVISVP2,2013-01-07 15:11:00,
2013-01-07 08:16:00,26.6,16.5,30.05,SSW,192,0.0,0.0,65,0.00,,,0.00,WUHU216DAVISVP2,2013-01-07 15:16:00,
2013-01-07 08:21:00,26.5,16.4,30.05,SSW,192,0.0,2.0,65,0.00,,,0.00,WUHU216DAVISVP2,2013-01-07 15:21:00,
2013-01-07 08:26:00,26.3,16.5,30.06,SSW,192,0.0,2.0,66,0.00,,,0.00,WUHU216DAVISVP2,2013-01-07 15:26:00,
2013-01-07 08:31:00,26.4,16.9,30.06,SSW,192,0.0,1.0,67,0.00,,,0.00,WUHU216DAVISVP2,2013-01-07 15:31:00,
2013-01-07 08:36:00,26.7,16.9,30.06,SSW,192,0.0,0.0,66,0.00,,,0.00,WUHU216DAVISVP2,2013-01-07 15:36:00,
2013-01-07 08:41:00,27.6,17.4,30.05,SSW,192,0.0,0.0,65,0.00,,,0.00,WUHU216DAVISVP2,2013-01-07 15:41:00,
2013-01-07 08:46:00,28.9,17.2,30.05,SSW,192,0.0,0.0,61,0.00,,,0.00,WUHU216DAVISVP2,2013-01-07 15:46:00,
2013-01-07 08:51:00,29.9,18.1,30.05,SSW,192,1.0,1.0,61,0.00,,,0.00,WUHU216DAVISVP2,2013-01-07 15:51:00,
2013-01-07 08:56:00,30.0,17.8,30.05,SSW,192,2.0,3.0,60,0.00,,,0.00,WUHU216DAVISVP2,2013-01-07 15:56:00,
2013-01-07 09:01:00,29.8,18.0,30.05,SSW,192,0.0,3.0,61,0.00,,,0.00,WUHU216DAVISVP2,2013-01-07 16:01:00,
2013-01-07 09:06:00,30.2,18.4,30.06,SSW,192,0.0,2.0,61,0.00,,,0.00,WUHU216DAVISVP2,2013-01-07 16:06:00,
2013-01-07 09:11:00,30.2,18.0,30.06,SSW,192,2.0,2.0,60,0.00,,,0.00,WUHU216DAVISVP2,2013-01-07 16:11:00,
2013-01-07 09:16:00,30.4,18.2,30.07,SSW,192,0.0,2.0,60,0.00,,,0.00,WUHU216DAVISVP2,2013-01-07 16:16:00,
2013-01-07 09:21:00,31.2,19.0,30.07,SSW,192,0.0,2.0,60,0.00,,,0.00,WUHU216DAVISVP2,2013-01-07 16:21:00,
2013-01-07 09:26:00,32.4,18.5,30.07,NW,311,3.0,3.0,56,0.00,,,0.00,WUHU216DAVISVP2,2013-01-07 16:26:00,
2013-01-07 09:31:00,33.3,18.4,30.07,ENE,63,0.0,4.0,54,0.00,,,0.00,WUHU216DAVISVP2,2013-01-07 16:31:00,
2013-01-07 09:36:00,34.1,18.3,30.07,NNE,26,2.0,4.0,52,0.00,,,0.00,WUHU216DAVISVP2,2013-01-07 16:36:00,
2013-01-07 09:41:00,34.6,17.8,30.07,ENE,74,3.0,7.0,50,0.00,,,0.00,WUHU216DAVISVP2,2013-01-07 16:41:00,
2013-01-07 09:46:00,35.0,18.2,30.07,NNW,346,4.0,7.0,50,0.00,,,0.00,WUHU216DAVISVP2,2013-01-07 16:46:00,
2013-01-07 09:51:00,35.2,17.9,30.08,NNE,14,5.0,7.0,49,0.00,,,0.00,WUHU216DAVISVP2,2013-01-07 16:51:00,
2013-01-07 09:56:00,35.1,17.8,30.08,NNW,338,6.0,7.0,49,0.00,,,0.00,WUHU216DAVISVP2,2013-01-07 16:56:00,
2013-01-07 10:01:00,35.3,17.5,30.08,NNE,20,3.0,6.0,48,0.00,,,0.00,WUHU216DAVISVP2,2013-01-07 17:01:00,
2013-01-07 10:06:00,35.5,17.7,30.08,East,80,2.0,6.0,48,0.00,,,0.00,WUHU216DAVISVP2,2013-01-07 17:06:00,
2013-01-07 10:11:00,36.1,18.2,30.08,North,9,5.0,6.0,48,0.00,,,0.00,WUHU216DAVISVP2,2013-01-07 17:11:00,
2013-01-07 10:16:00,36.1,17.7,30.08,North,355,6.0,6.0,47,0.00,,,0.00,WUHU216DAVISVP2,2013-01-07 17:16:00,
2013-01-07 10:21:00,36.3,18.4,30.08,North,355,5.0,6.0,48,0.00,,,0.00,WUHU216DAVISVP2,2013-01-07 17:21:00,
2013-01-07 10:26:00,36.6,18.2,30.08,NNW,342,4.0,6.0,47,0.00,,,0.00,WUHU216DAVISVP2,2013-01-07 17:26:00,
2013-01-07 10:31:00,36.5,18.1,30.08,NNE,27,7.0,7.0,47,0.00,,,0.00,WUHU216DAVISVP2,2013-01-07 17:31:00,
2013-01-07 10:36:00,36.5,18.1,30.08,NNE,32,2.0,9.0,47,0.00,,,0.00,WUHU216DAVISVP2,2013-01-07 17:36:00,
2013-01-07 10:41:00,37.3,18.8,30.08,North,349,6.0,9.0,47,0.00,,,0.00,WUHU216DAVISVP2,2013-01-07 17:41:00,
2013-01-07 10:46:00,37.4,18.4,30.08,NNE,19,5.0,7.0,46,0.00,,,0.00,WUHU216DAVISVP2,2013-01-07 17:46:00,
2013-01-07 10:51:00,37.2,18.2,30.09,NNE,33,1.0,8.0,46,0.00,,,0.00,WUHU216DAVISVP2,2013-01-07 17:51:00,
2013-01-07 10:56:00,37.1,18.1,30.08,NE,46,3.0,8.0,46,0.00,,,0.00,WUHU216DAVISVP2,2013-01-07 17:56:00,
2013-01-07 11:01:00,37.3,18.4,30.09,NNW,331,4.0,8.0,46,0.00,,,0.00,WUHU216DAVISVP2,2013-01-07 18:01:00,
2013-01-07 11:06:00,37.4,18.4,30.08,NNW,344,4.0,8.0,46,0.00,,,0.00,WUHU216DAVISVP2,2013-01-07 18:06:00,
2013-01-07 11:11:00,37.4,18.4,30.08,NNW,339,5.0,8.0,46,0.00,,,0.00,WUHU216DAVISVP2,2013-01-07 18:11:00,
2013-01-07 11:16:00,37.4,18.4,30.08,ENE,69,3.0,9.0,46,0.00,,,0.00,WUHU216DAVISVP2,2013-01-07 18:16:00,
2013-01-07 11:21:00,37.9,18.3,30.08,ENE,64,4.0,9.0,45,0.00,,,0.00,WUHU216DAVISVP2,2013-01-07 18:21:00,
2013-01-07 11:26:00,38.1,18.0,30.08,NNW,336,4.0,7.0,44,0.00,,,0.00,WUHU216DAVISVP2,2013-01-07 18:26:00,
2013-01-07 11:31:00,38.3,18.1,30.08,NNE,29,3.0,8.0,44,0.00,,,0.00,WUHU216DAVISVP2,2013-01-07 18:31:00,
2013-01-07 11:36:00,38.6,18.4,30.07,NNE,26,5.0,8.0,44,0.00,,,0.00,WUHU216DAVISVP2,2013-01-07 18:36:00,
2013-01-07 11:41:00,38.9,19.2,30.07,NE,36,5.0,7.0,45,0.00,,,0.00,WUHU216DAVISVP2,2013-01-07 18:41:00,
2013-01-07 11:46:00,39.3,19.0,30.06,NNE,12,4.0,7.0,44,0.00,,,0.00,WUHU216DAVISVP2,2013-01-07 18:46:00,
2013-01-07 11:51:00,39.7,19.4,30.06,ENE,70,3.0,7.0,44,0.00,,,0.00,WUHU216DAVISVP2,2013-01-07 18:51:00,
2013-01-07 11:56:00,40.3,19.4,30.05,NE,54,6.0,9.0,43,0.00,,,0.00,WUHU216DAVISVP2,2013-01-07 18:56:00,
2013-01-07 12:01:00,40.6,19.7,30.05,NE,46,3.0,9.0,43,0.00,,,0.00,WUHU216DAVISVP2,2013-01-07 19:01:00,
2013-01-07 12:06:00,41.0,20.2,30.05,NNE,33,6.0,9.0,43,0.00,,,0.00,WUHU216DAVISVP2,2013-01-07 19:06:00,
2013-01-07 12:11:00,41.3,20.3,30.05,NE,55,1.0,8.0,43,0.00,,,0.00,WUHU216DAVISVP2,2013-01-07 19:11:00,
2013-01-07 12:16:00,42.0,20.5,30.05,ENE,58,4.0,7.0,42,0.00,,,0.00,WUHU216DAVISVP2,2013-01-07 19:16:00,
2013-01-07 12:21:00,42.3,20.7,30.05,NE,53,3.0,7.0,42,0.00,,,0.00,WUHU216DAVISVP2,2013-01-07 19:21:00,
2013-01-07 12:26:00,42.5,20.8,30.04,NNE,28,2.0,8.0,42,0.00,,,0.00,WUHU216DAVISVP2,2013-01-07 19:26:00,
2013-01-07 12:31:00,43.2,20.9,30.04,NE,53,6.0,10.0,41,0.00,,,0.00,WUHU216DAVISVP2,2013-01-07 19:31:00,
2013-01-07 12:36:00,43.4,21.1,30.04,ESE,117,1.0,12.0,41,0.00,,,0.00,WUHU216DAVISVP2,2013-01-07 19:36:00,
2013-01-07 12:41:00,44.2,21.2,30.03,ENE,61,7.0,12.0,40,0.00,,,0.00,WUHU216DAVISVP2,2013-01-07 19:41:00,
2013-01-07 12:46:00,44.2,20.6,30.03,East,79,10.0,15.0,39,0.00,,,0.00,WUHU216DAVISVP2,2013-01-07 19:46:00,
2013-01-07 12:51:00,44.4,20.8,30.03,NE,53,13.0,15.0,39,0.00,,,0.00,WUHU216DAVISVP2,2013-01-07 19:51:00,
2013-01-07 12:56:00,44.5,20.2,30.03,NE,51,3.0,15.0,38,0.00,,,0.00,WUHU216DAVISVP2,2013-01-07 19:56:00,
2013-01-07 13:01:00,44.9,20.6,30.02,ENE,78,7.0,15.0,38,0.00,,,0.00,WUHU216DAVISVP2,2013-01-07 20:01:00,
2013-01-07 13:06:00,44.9,20.0,30.03,ENE,70,11.0,15.0,37,0.00,,,0.00,WUHU216DAVISVP2,2013-01-07 20:06:00,
2013-01-07 13:11:00,44.7,19.8,30.02,NE,53,12.0,15.0,37,0.00,,,0.00,WUHU216DAVISVP2,2013-01-07 20:11:00,
2013-01-07 13:16:00,44.7,19.1,30.02,ENE,74,3.0,13.0,36,0.00,,,0.00,WUHU216DAVISVP2,2013-01-07 20:16:00,
2013-01-07 13:19:00,45.0,19.4,30.02,ENE,70,11.0,13.0,36,0.00,,,0.00,WUHU216DAVISVP2,2013-01-07 20:19:00,
2013-01-07 13:24:00,45.0,18.7,30.02,ENE,75,2.0,11.0,35,0.00,,,0.00,WUHU216DAVISVP2,2013-01-07 20:24:00,
2013-01-07 13:29:00,45.4,19.1,30.02,ESE,107,2.0,10.0,35,0.00,,,0.00,WUHU216DAVISVP2,2013-01-07 20:29:00,
2013-01-07 13:34:00,45.6,17.9,30.02,NE,54,11.0,16.0,33,0.00,,,0.00,WUHU216DAVISVP2,2013-01-07 20:34:00,
2013-01-07 13:39:00,45.3,18.3,30.02,SE,130,5.0,16.0,34,0.00,,,0.00,WUHU216DAVISVP2,2013-01-07 20:39:00,
2013-01-07 13:44:00,46.0,17.5,30.02,ENE,67,3.0,16.0,32,0.00,,,0.00,WUHU216DAVISVP2,2013-01-07 20:44:00,
2013-01-07 13:49:00,46.8,17.5,30.02,North,5,8.0,12.0,31,0.00,,,0.00,WUHU216DAVISVP2,2013-01-07 20:49:00,
2013-01-07 13:54:00,47.0,19.8,30.03,NNE,17,2.0,12.0,34,0.00,,,0.00,WUHU216DAVISVP2,2013-01-07 20:54:00,
2013-01-07 13:59:00,46.7,19.6,30.03,NNW,342,4.0,11.0,34,0.00,,,0.00,WUHU216DAVISVP2,2013-01-07 20:59:00,
2013-01-07 14:04:00,46.5,19.4,30.03,North,360,5.0,10.0,34,0.00,,,0.00,WUHU216DAVISVP2,2013-01-07 21:04:00,
2013-01-07 14:09:00,46.3,19.9,30.03,NNE,26,7.0,10.0,35,0.00,,,0.00,WUHU216DAVISVP2,2013-01-07 21:09:00,
2013-01-07 14:14:00,46.0,19.6,30.03,North,9,8.0,10.0,35,0.00,,,0.00,WUHU216DAVISVP2,2013-01-07 21:14:00,
2013-01-07 14:19:00,46.0,18.9,30.03,NNE,32,7.0,10.0,34,0.00,,,0.00,WUHU216DAVISVP2,2013-01-07 21:19:00,
2013-01-07 14:24:00,46.2,19.1,30.03,NNE,32,7.0,10.0,34,0.00,,,0.00,WUHU216DAVISVP2,2013-01-07 21:24:00,
2013-01-07 14:29:00,46.7,18.9,30.03,NNW,344,10.0,12.0,33,0.00,,,0.00,WUHU216DAVISVP2,2013-01-07 21:29:00,
2013-01-07 14:34:00,46.6,18.8,30.03,NE,42,7.0,13.0,33,0.00,,,0.00,WUHU216DAVISVP2,2013-01-07 21:34:00,
2013-01-07 14:39:00,46.5,19.4,30.03,NW,317,10.0,13.0,34,0.00,,,0.00,WUHU216DAVISVP2,2013-01-07 21:39:00,
2013-01-07 14:44:00,46.3,19.2,30.03,NNW,338,9.0,11.0,34,0.00,,,0.00,WUHU216DAVISVP2,2013-01-07 21:44:00,
2013-01-07 14:49:00,46.5,18.7,30.03,North,5,3.0,10.0,33,0.00,,,0.00,WUHU216DAVISVP2,2013-01-07 21:49:00,
2013-01-07 14:54:00,46.8,19.0,30.03,NNE,27,6.0,10.0,33,0.00,,,0.00,WUHU216DAVISVP2,2013-01-07 21:54:00,
2013-01-07 14:59:00,47.0,18.4,30.03,NNE,23,8.0,10.0,32,0.00,,,0.00,WUHU216DAVISVP2,2013-01-07 21:59:00,
2013-01-07 15:04:00,46.8,18.5,30.03,NE,36,4.0,10.0,32,0.00,,,0.00,WUHU216DAVISVP2,2013-01-07 22:04:00,
2013-01-07 15:09:00,46.8,17.7,30.03,NE,45,7.0,10.0,31,0.00,,,0.00,WUHU216DAVISVP2,2013-01-07 22:09:00,
2013-01-07 15:14:00,47.0,17.1,30.03,North,5,1.0,9.0,30,0.00,,,0.00,WUHU216DAVISVP2,2013-01-07 22:14:00,
2013-01-07 15:19:00,47.3,16.4,30.03,ENE,57,2.0,8.0,29,0.00,,,0.00,WUHU216DAVISVP2,2013-01-07 22:19:00,
2013-01-07 15:24:00,47.7,16.8,30.03,North,355,6.0,11.0,29,0.00,,,0.00,WUHU216DAVISVP2,2013-01-07 22:24:00,
2013-01-07 15:29:00,47.7,16.0,30.03,North,11,7.0,12.0,28,0.00,,,0.00,WUHU216DAVISVP2,2013-01-07 22:29:00,
2013-01-07 15:34:00,47.7,16.0,30.03,North,5,5.0,12.0,28,0.00,,,0.00,WUHU216DAVISVP2,2013-01-07 22:34:00,
2013-01-07 15:39:00,47.6,16.1,30.03,NNE,26,4.0,9.0,28,0.00,,,0.00,WUHU216DAVISVP2,2013-01-07 22:39:00,
2013-01-07 15:44:00,47.8,15.4,30.04,North,9,10.0,12.0,27,0.00,,,0.00,WUHU216DAVISVP2,2013-01-07 22:44:00,
2013-01-07 15:49:00,47.8,15.2,30.04,NE,46,5.0,12.0,27,0.00,,,0.00,WUHU216DAVISVP2,2013-01-07 22:49:00,
2013-01-07 15:54:00,47.6,15.1,30.05,North,350,5.0,14.0,27,0.00,,,0.00,WUHU216DAVISVP2,2013-01-07 22:54:00,
2013-01-07 15:59:00,47.7,15.1,30.05,NNW,328,7.0,14.0,27,0.00,,,0.00,WUHU216DAVISVP2,2013-01-07 22:59:00,
2013-01-07 16:04:00,47.7,14.3,30.05,NE,38,10.0,12.0,26,0.00,,,0.00,WUHU216DAVISVP2,2013-01-07 23:04:00,
2013-01-07 16:09:00,47.6,15.9,30.06,NNE,25,3.0,12.0,28,0.00,,,0.00,WUHU216DAVISVP2,2013-01-07 23:09:00,
2013-01-07 16:14:00,47.5,16.8,30.06,NNE,19,5.0,10.0,29,0.00,,,0.00,WUHU216DAVISVP2,2013-01-07 23:14:00,
2013-01-07 16:19:00,47.4,16.5,30.06,North,360,4.0,10.0,29,0.00,,,0.00,WUHU216DAVISVP2,2013-01-07 23:19:00,
2013-01-07 16:24:00,47.4,17.3,30.06,North,5,4.0,10.0,30,0.00,,,0.00,WUHU216DAVISVP2,2013-01-07 23:24:00,
2013-01-07 16:29:00,47.4,18.0,30.06,North,355,2.0,9.0,31,0.00,,,0.00,WUHU216DAVISVP2,2013-01-07 23:29:00,
2013-01-07 16:34:00,47.2,17.1,30.06,North,5,7.0,12.0,30,0.00,,,0.00,WUHU216DAVISVP2,2013-01-07 23:34:00,
2013-01-07 16:39:00,46.9,17.6,30.07,North,355,4.0,12.0,31,0.00,,,0.00,WUHU216DAVISVP2,2013-01-07 23:39:00,
2013-01-07 16:44:00,46.7,17.4,30.07,NE,36,7.0,10.0,31,0.00,,,0.00,WUHU216DAVISVP2,2013-01-07 23:44:00,
2013-01-07 16:49:00,46.5,17.2,30.07,NNE,26,4.0,10.0,31,0.00,,,0.00,WUHU216DAVISVP2,2013-01-07 23:49:00,
2013-01-07 16:54:00,46.4,17.2,30.07,North,355,4.0,10.0,31,0.00,,,0.00,WUHU216DAVISVP2,2013-01-07 23:54:00,
2013-01-07 16:59:00,46.1,17.1,30.07,NNW,338,5.0,10.0,31,0.00,,,0.00,WUHU216DAVISVP2,2013-01-07 23:59:00,
2013-01-07 17:04:00,45.8,16.6,30.07,North,360,4.0,9.0,31,0.00,,,0.00,WUHU216DAVISVP2,2013-01-08 00:04:00,
2013-01-07 17:09:00,45.4,15.5,30.07,NW,326,6.0,7.0,30,0.00,,,0.00,WUHU216DAVISVP2,2013-01-08 00:09:00,
2013-01-07 17:14:00,45.0,16.1,30.07,NNW,333,9.0,12.0,31,0.00,,,0.00,WUHU216DAVISVP2,2013-01-08 00:14:00,
2013-01-07 17:19:00,44.5,15.5,30.08,North,355,5.0,12.0,31,0.00,,,0.00,WUHU216DAVISVP2,2013-01-08 00:19:00,
2013-01-07 17:24:00,43.6,15.4,30.08,NNE,16,1.0,9.0,32,0.00,,,0.00,WUHU216DAVISVP2,2013-01-08 00:24:00,
2013-01-07 17:29:00,42.9,14.8,30.08,NW,325,5.0,9.0,32,0.00,,,0.00,WUHU216DAVISVP2,2013-01-08 00:29:00,
2013-01-07 17:34:00,42.3,14.5,30.08,NW,310,7.0,9.0,32,0.00,,,0.00,WUHU216DAVISVP2,2013-01-08 00:34:00,
2013-01-07 17:39:00,41.8,14.1,30.08,North,355,4.0,9.0,32,0.00,,,0.00,WUHU216DAVISVP2,2013-01-08 00:39:00,
2013-01-07 17:44:00,41.4,13.5,30.08,NE,41,4.0,9.0,32,0.00,,,0.00,WUHU216DAVISVP2,2013-01-08 00:44:00,
2013-01-07 17:49:00,41.0,13.1,30.08,North,5,2.0,9.0,32,0.00,,,0.00,WUHU216DAVISVP2,2013-01-08 00:49:00,
2013-01-07 17:54:00,40.6,12.8,30.08,North,11,3.0,10.0,32,0.00,,,0.00,WUHU216DAVISVP2,2013-01-08 00:54:00,
2013-01-07 17:59:00,40.2,13.1,30.09,North,360,7.0,10.0,33,0.00,,,0.00,WUHU216DAVISVP2,2013-01-08 00:59:00,
2013-01-07 18:04:00,40.0,13.2,30.08,North,9,5.0,9.0,33,0.00,,,0.00,WUHU216DAVISVP2,2013-01-08 01:04:00,
2013-01-07 18:09:00,39.9,12.9,30.08,NNW,340,4.0,8.0,33,0.00,,,0.00,WUHU216DAVISVP2,2013-01-08 01:09:00,
2013-01-07 18:14:00,39.8,12.8,30.08,North,355,3.0,7.0,33,0.00,,,0.00,WUHU216DAVISVP2,2013-01-08 01:14:00,
2013-01-07 18:19:00,39.5,12.5,30.09,North,349,1.0,6.0,33,0.00,,,0.00,WUHU216DAVISVP2,2013-01-08 01:19:00,
2013-01-07 18:24:00,39.2,12.2,30.09,NNE,17,3.0,8.0,33,0.00,,,0.00,WUHU216DAVISVP2,2013-01-08 01:24:00,
2013-01-07 18:29:00,38.9,12.7,30.10,NNW,339,2.0,8.0,34,0.00,,,0.00,WUHU216DAVISVP2,2013-01-08 01:29:00,
2013-01-07 18:34:00,38.8,12.6,30.09,North,11,3.0,8.0,34,0.00,,,0.00,WUHU216DAVISVP2,2013-01-08 01:34:00,
2013-01-07 18:39:00,38.6,12.4,30.10,North,10,3.0,8.0,34,0.00,,,0.00,WUHU216DAVISVP2,2013-01-08 01:39:00,
2013-01-07 18:44:00,38.3,12.3,30.10,North,360,5.0,8.0,34,0.00,,,0.00,WUHU216DAVISVP2,2013-01-08 01:44:00,
2013-01-07 18:49:00,38.1,12.2,30.11,NNE,22,7.0,8.0,34,0.00,,,0.00,WUHU216DAVISVP2,2013-01-08 01:49:00,
2013-01-07 18:54:00,38.0,12.7,30.11,NNE,30,4.0,9.0,35,0.00,,,0.00,WUHU216DAVISVP2,2013-01-08 01:54:00,
2013-01-07 18:59:00,37.7,12.5,30.11,NNE,15,3.0,9.0,35,0.00,,,0.00,WUHU216DAVISVP2,2013-01-08 01:59:00,
2013-01-07 19:04:00,37.4,12.2,30.11,North,355,8.0,9.0,35,0.00,,,0.00,WUHU216DAVISVP2,2013-01-08 02:04:00,
2013-01-07 19:09:00,37.4,12.0,30.11,North,360,6.0,10.0,35,0.00,,,0.00,WUHU216DAVISVP2,2013-01-08 02:09:00,
2013-01-07 19:14:00,37.3,12.1,30.12,NNE,17,10.0,10.0,35,0.00,,,0.00,WUHU216DAVISVP2,2013-01-08 02:14:00,
2013-01-07 19:19:00,37.3,11.9,30.12,North,9,2.0,10.0,35,0.00,,,0.00,WUHU216DAVISVP2,2013-01-08 02:19:00,
2013-01-07 19:24:00,37.0,11.8,30.12,North,5,4.0,10.0,35,0.00,,,0.00,WUHU216DAVISVP2,2013-01-08 02:24:00,
2013-01-07 19:29:00,36.8,11.5,30.13,NE,44,2.0,8.0,35,0.00,,,0.00,WUHU216DAVISVP2,2013-01-08 02:29:00,
2013-01-07 19:34:00,36.6,11.9,30.13,NNE,31,2.0,8.0,36,0.00,,,0.00,WUHU216DAVISVP2,2013-01-08 02:34:00,
2013-01-07 19:39:00,36.4,11.7,30.13,WNW,300,4.0,7.0,36,0.00,,,0.00,WUHU216DAVISVP2,2013-01-08 02:39:00,
2013-01-07 19:44:00,36.5,12.0,30.14,North,5,3.0,8.0,36,0.00,,,0.00,WUHU216DAVISVP2,2013-01-08 02:44:00,
2013-01-07 19:49:00,36.4,11.9,30.14,North,5,6.0,8.0,36,0.00,,,0.00,WUHU216DAVISVP2,2013-01-08 02:49:00,
2013-01-07 19:54:00,36.5,11.2,30.14,NNW,336,5.0,9.0,35,0.00,,,0.00,WUHU216DAVISVP2,2013-01-08 02:54:00,
2013-01-07 19:59:00,36.5,11.2,30.14,North,360,1.0,9.0,35,0.00,,,0.00,WUHU216DAVISVP2,2013-01-08 02:59:00,
2013-01-07 20:04:00,36.4,11.1,30.14,North,355,3.0,6.0,35,0.00,,,0.00,WUHU216DAVISVP2,2013-01-08 03:04:00,
2013-01-07 20:09:00,36.1,11.5,30.14,NNW,338,2.0,5.0,36,0.00,,,0.00,WUHU216DAVISVP2,2013-01-08 03:09:00,
2013-01-07 20:14:00,36.0,11.4,30.14,NNW,331,0.0,4.0,36,0.00,,,0.00,WUHU216DAVISVP2,2013-01-08 03:14:00,
2013-01-07 20:19:00,35.9,11.3,30.14,North,360,4.0,6.0,36,0.00,,,0.00,WUHU216DAVISVP2,2013-01-08 03:19:00,
2013-01-07 20:24:00,35.9,11.3,30.14,NW,319,2.0,6.0,36,0.00,,,0.00,WUHU216DAVISVP2,2013-01-08 03:24:00,
2013-01-07 20:29:00,35.9,11.5,30.14,North,9,0.0,4.0,36,0.00,,,0.00,WUHU216DAVISVP2,2013-01-08 03:29:00,
2013-01-07 20:34:00,35.9,11.9,30.14,North,355,3.0,5.0,37,0.00,,,0.00,WUHU216DAVISVP2,2013-01-08 03:34:00,
2013-01-07 20:39:00,35.8,12.0,30.14,NNE,20,2.0,5.0,37,0.00,,,0.00,WUHU216DAVISVP2,2013-01-08 03:39:00,
2013-01-07 20:44:00,35.8,11.2,30.13,North,5,1.0,6.0,36,0.00,,,0.00,WUHU216DAVISVP2,2013-01-08 03:44:00,
2013-01-07 20:49:00,35.7,11.3,30.13,NNE,30,0.0,6.0,36,0.00,,,0.00,WUHU216DAVISVP2,2013-01-08 03:49:00,
2013-01-07 20:54:00,35.5,11.6,30.13,NNE,20,0.0,4.0,37,0.00,,,0.00,WUHU216DAVISVP2,2013-01-08 03:54:00,
2013-01-07 20:59:00,35.2,11.5,30.13,NNE,20,0.0,3.0,37,0.00,,,0.00,WUHU216DAVISVP2,2013-01-08 03:59:00,
2013-01-07 21:04:00,34.9,11.0,30.13,NNE,20,1.0,1.0,37,0.00,,,0.00,WUHU216DAVISVP2,2013-01-08 04:04:00,
2013-01-07 21:09:00,34.0,12.6,30.13,ENE,63,0.0,1.0,41,0.00,,,0.00,WUHU216DAVISVP2,2013-01-08 04:09:00,
2013-01-07 21:14:00,33.2,11.3,30.13,ENE,63,0.0,1.0,40,0.00,,,0.00,WUHU216DAVISVP2,2013-01-08 04:14:00,
2013-01-07 21:19:00,32.8,11.5,30.14,ENE,63,0.0,1.0,41,0.00,,,0.00,WUHU216DAVISVP2,2013-01-08 04:19:00,
2013-01-07 21:24:00,32.1,12.5,30.14,ENE,63,0.0,0.0,44,0.00,,,0.00,WUHU216DAVISVP2,2013-01-08 04:24:00,
2013-01-07 21:29:00,31.5,12.1,30.14,ENE,63,0.0,0.0,44,0.00,,,0.00,WUHU216DAVISVP2,2013-01-08 04:29:00,
2013-01-07 21:34:00,31.1,12.6,30.14,ENE,63,0.0,0.0,46,0.00,,,0.00,WUHU216DAVISVP2,2013-01-08 04:34:00,
2013-01-07 21:39:00,30.7,12.8,30.14,ENE,63,0.0,0.0,47,0.00,,,0.00,WUHU216DAVISVP2,2013-01-08 04:39:00,
2013-01-07 21:44:00,30.3,12.5,30.14,ENE,63,0.0,0.0,47,0.00,,,0.00,WUHU216DAVISVP2,2013-01-08 04:44:00,
2013-01-07 21:49:00,30.3,12.9,30.14,ENE,63,0.0,0.0,48,0.00,,,0.00,WUHU216DAVISVP2,2013-01-08 04:49:00,
2013-01-07 21:54:00,30.2,12.3,30.14,ENE,63,0.0,0.0,47,0.00,,,0.00,WUHU216DAVISVP2,2013-01-08 04:54:00,
2013-01-07 21:59:00,30.2,11.8,30.14,ENE,63,0.0,0.0,46,0.00,,,0.00,WUHU216DAVISVP2,2013-01-08 04:59:00,
2013-01-07 22:00:00,30.2,11.8,30.14,ENE,63,0.0,0.0,46,0.00,,,0.00,WUHU216DAVISVP2,2013-01-08 05:00:00,
2013-01-07 22:03:00,30.4,12.5,30.14,ENE,63,0.0,0.0,47,0.00,,,0.00,WUHU216DAVISVP2,2013-01-08 05:03:00,
2013-01-07 22:08:00,30.7,11.7,30.14,East,87,0.0,1.0,45,0.00,,,0.00,WUHU216DAVISVP2,2013-01-08 05:08:00,
2013-01-07 22:13:00,30.9,12.0,30.14,East,87,0.0,1.0,45,0.00,,,0.00,WUHU216DAVISVP2,2013-01-08 05:13:00,
2013-01-07 22:18:00,30.9,11.5,30.15,ENE,65,0.0,1.0,44,0.00,,,0.00,WUHU216DAVISVP2,2013-01-08 05:18:00,
2013-01-07 22:23:00,30.9,11.5,30.15,NE,56,0.0,2.0,44,0.00,,,0.00,WUHU216DAVISVP2,2013-01-08 05:23:00,
2013-01-07 22:28:00,31.0,11.5,30.15,NE,56,0.0,2.0,44,0.00,,,0.00,WUHU216DAVISVP2,2013-01-08 05:28:00,
2013-01-07 22:33:00,31.0,11.5,30.15,NE,41,1.0,2.0,44,0.00,,,0.00,WUHU216DAVISVP2,2013-01-08 05:33:00,
2013-01-07 22:38:00,31.2,11.7,30.15,NNE,22,0.0,3.0,44,0.00,,,0.00,WUHU216DAVISVP2,2013-01-08 05:38:00,
2013-01-07 22:43:00,31.3,11.7,30.15,NNE,22,0.0,3.0,44,0.00,,,0.00,WUHU216DAVISVP2,2013-01-08 05:43:00,
2013-01-07 22:48:00,31.2,11.7,30.16,NNE,22,0.0,2.0,44,0.00,,,0.00,WUHU216DAVISVP2,2013-01-08 05:48:00,
2013-01-07 22:53:00,30.5,12.0,30.16,NNE,22,0.0,0.0,46,0.00,,,0.00,WUHU216DAVISVP2,2013-01-08 05:53:00,
2013-01-07 22:58:00,29.9,12.1,30.16,NNE,22,0.0,0.0,47,0.00,,,0.00,WUHU216DAVISVP2,2013-01-08 05:58:00,
2013-01-07 23:03:00,29.5,11.6,30.16,NNE,22,0.0,0.0,47,0.00,,,0.00,WUHU216DAVISVP2,2013-01-08 06:03:00,
2013-01-07 23:08:00,29.2,12.3,30.17,SE,134,3.0,3.0,49,0.00,,,0.00,WUHU216DAVISVP2,2013-01-08 06:08:00,
2013-01-07 23:13:00,28.6,13.2,30.16,SE,144,0.0,3.0,52,0.00,,,0.00,WUHU216DAVISVP2,2013-01-08 06:13:00,
2013-01-07 23:18:00,28.0,13.0,30.16,SE,144,0.0,3.0,53,0.00,,,0.00,WUHU216DAVISVP2,2013-01-08 06:18:00,
2013-01-07 23:23:00,27.5,13.0,30.16,SE,144,0.0,1.0,54,0.00,,,0.00,WUHU216DAVISVP2,2013-01-08 06:23:00,
2013-01-07 23:28:00,27.2,13.1,30.16,SE,144,0.0,1.0,55,0.00,,,0.00,WUHU216DAVISVP2,2013-01-08 06:28:00,
2013-01-07 23:33:00,27.0,13.0,30.16,SE,146,0.0,1.0,55,0.00,,,0.00,WUHU216DAVISVP2,2013-01-08 06:33:00,
2013-01-07 23:38:00,26.9,12.9,30.16,SSE,147,0.0,2.0,55,0.00,,,0.00,WUHU216DAVISVP2,2013-01-08 06:38:00,
2013-01-07 23:43:00,27.2,12.7,30.16,SSE,148,0.0,2.0,54,0.00,,,0.00,WUHU216DAVISVP2,2013-01-08 06:43:00,
2013-01-07 23:48:00,27.3,12.4,30.16,SSE,149,0.0,2.0,53,0.00,,,0.00,WUHU216DAVISVP2,2013-01-08 06:48:00,
2013-01-07 23:53:00,27.5,12.6,30.16,SSE,149,0.0,1.0,53,0.00,,,0.00,WUHU216DAVISVP2,2013-01-08 06:53:00,
2013-01-07 23:58:00,27.5,12.6,30.16,SSE,149,1.0,2.0,53,0.00,,,0.00,WUHU216DAVISVP2,2013-01-08 06:58:00,